Location: *
(2.7500°S, 66.6833°W)
Time: 03:24:26
(UTC+00:00)

ARIANE 2 DEBRIS - Pass Details

Date: 24 May 2024
Orbit: 523 x 35308 km, 7.4° (Epoch: 23 June)

Event Time Altitude Azimuth Distance (km) Brightness Sun altitude
Rises 23:09:25 0° 267° (W) 3,154 8.0 -11.7°
Reaches altitude 10° 23:11:54 10° 261° (W) 1,849 6.5 -12.2°
Maximum altitude 23:15:04 51° 183° (S) 671 3.1 -13.0°
Enters shadow 23:17:22 20° 112° (ESE) 1,460 4.3 -13.5°
